SCP
0 0 0 0 0 0 0 0 0 0 0 0 0 0 0 -0 0 0 -0 -0 -0 -0 0 0 0 0 0 0 0 0 -0 0 0 0 0 0 0 0 0 0 0 0 0
0 0 0 0 0 0 0 0 0 0 0 0 0 0 -0 0 0 -0 -0 -0 0 0 0 0 0 0 -0 0 0 0 0 0 0 0 0 0 0 0 0 0 0 0 0
0 0 0 0 0 0 0 0 0 0 0 0 0 0 0 0 0 -0 0 0 0 0 0 -0 0 0 -0 -0 0 0 0 0 -0 -0 0 0 0 0 0 0 0 0 0
0 0 0 0 0 0 -0 -0 0 0 0 0 0 0 0 0 -0 0 0 0 -0 -0 -0 -0 -0 -0 -0 0 -0 0 0 0 0 0 0 0 0 0 0 0 -0 -0 -0
0 0 0 0 -0 -0 -0 -0 0 0 0 0 0 -0 -0 -0 0 0 0 -0 -0 -0 -0 0 0 0 0 0 0 0 0 0 0 0 0 0 0 0 0 0 -0 -0 -0
0 -0 0 0 0 0 -0 -0 0 0 0 0 -0 -0 -0 -0 -0 -0 0 -0 0 0 -0 0 0 0 0 0 0 0 0 0 0 0 0 0 0 0 0 0 -0 -0 0
-0 0 -0 -0 -0 0 -0 0 0 0 0 -0 -0 -0 0 0 0 -0 0 0 0 0 0 0 -0 0 0 0 -0 0 0 0 0 0 0 0 0 -0 -0 -0 -0 -0 -0
-0 0 -0 0 -0 0 0 0 -0 0 -0 -0 -0 -0 -0 0 -0 0 -0 -0 0 0 0 0 0 0 -0 0 0 0 0 0 0 0 0 -0 -0 -0 -0 -0 -0 -0 0
0 -0 0 -0 -0 0 0 -0 -0 -0 0 0 -0 -0 -0 0 -0 -0 -0 -0 -0 0 0 0 -0 0 -0 -0 -0 0 -0 -0 -0 -0 -0 -0 -0 -0 -0 0 -0 0 0
0 0 -0 0 0 0 0 0 0 -0 -0 0 -0 -0 -0 0 -0 0 0 0 0 -0 -0 -0 -0 -0 -0 -0 -0 -0 0 0 0 -0 -0 -0 0 0 -0 0 0 0 0
0 0 0 0 0 0 0 0 0 0 -0 -0 0 -0 -0 0 0 0 0 0 0 -0 -0 -0 0 0 0 0 0 0 0 0 0 0 0 0 0 0 0 -0 0 0 0
0 0 0 0 0 0 0 0 0 0 -0 -0 0 -0 0 0 0 0 0 0 0 0 -0 -0 -0 0 0 0 0 0 0 0 0 0 0 0 0 0 0 0 0 0 0
0 0 0 0 0 0 0 0 0 0 0 0 0 0 0 0 0 -0 0 0 0 0 -0 0 0 -0 -0 -0 -0 0 0 0 0 0 0 0 0 0 0 0 0 0 0
0 0 0 0 0 -0 0 -0 0 0 0 0 0 0 0 0 0 0 0 0 -0 -0 0 0 0 0 0 0 0 0 0 0 0 0 0 0 0 0 0 0 0 0 0
0 0 0 0 0 0 0 -0 0 0 0 0 0 0 0 0 0 0 0 0 0 0 0 0 0 0 0 0 0 0 0 0 0 0 0 0 0 0 0 0 0 0 0
0 0 0 0 0 0 0 0 -0 -0 0 0 0 0 0 0 0 0 0 0 0 0 0 0 0 0 0 0 0 0 0 0 0 0 0 0 0 0 0 0 0 0 0
0 0 0 0 0 0 0 0 0 -0 0 0 0 0 0 0 0 0 0 0 0 0 0 0 0 0 0 0 0 0 0 0 0 0 0 0 0 0 0 0 0 0 0
-0 0 0 0 0 0 0 0 0 0 0 0 0 0 0 0 0 0 0 0 0 0 0 0 0 0 0 0 0 0 0 0 0 0 0 0 0 0 0 0 0 0 0
0 -0 0 0 -0 0 0 0 0 0 0 0 0 0 0 0 0 0 0 0 0 0 0 0 0 0 0 0 0 0 0 0 0 0 0 0 0 0 0 0 0 0 0
0 0 -0 0 0 0 0 0 0 0 0 0 0 0 0 0 0 0 0 0 0 0 0 0 0 0 0 0 0 0 0 0 0 0 0 0 0 0 0 0 0 0 0
0 0 0 -0 -0 0 0 0 0 0 0 0 0 0 0 0 0 0 0 0 0 0 0 0 0 0 0 0 0 0 0 0 0 0 0 0 0 0 0 0 0 0 0
0 0 0 -0 0 0 0 0 0 0 0 0 0 0 0 0 0 0 0 0 0 0 0 0 0 0 0 0 0 0 0 0 0 0 0 0 0 0 0 0 0 0 0
0 0 0 -0 0 -0 0 0 0 0 0 0 0 0 0 0 0 0 0 0 0 0 0 0 0 0 0 0 0 0 0 0 0 0 0 0 0 0 0 0 0 0 0
0 0 0 0 0 0 0 0 0 0 0 0 0 0 0 0 0 0 0 0 0 0 0 0 0 0 0 0 0 0 0 0 0 0 0 0 0 0 0 0 0 0 0
0 0 0 0 0 0 -0 -0 0 0 0 0 0 0 0 0 0 0 0 0 0 0 0 0 0 0 0 0 0 0 0 0 0 0 0 0 0 0 0 0 0 0 0
0 0 0 0 0 0 0 0 -0 -0 0 0 0 0 0 0 0 0 0 0 0 0 0 0 0 0 0 0 0 0 0 0 0 0 0 0 0 0 0 0 0 0 0
Wind_Speed_500mb
29 30 26 30 22 18 17 21 27 20 19 24 27 11 15 16 18 24 28 24 18 16 25 31 39 29 43 31 38 35 30 23 36 37 39 54 42 44 42 38 35 30 26
38 34 28 33 30 25 20 21 25 29 23 19 20 19 17 14 14 19 24 21 15 16 23 26 32 33 36 41 26 32 43 36 37 43 44 47 39 35 33 32 27 25 25
41 40 36 34 37 31 24 23 24 30 26 24 15 18 16 8 7 11 18 20 21 23 25 27 27 29 29 34 29 29 30 33 40 39 41 37 36 32 34 32 30 25 22
45 40 40 39 38 38 21 27 21 30 25 20 10 13 6 1 3 7 10 13 16 21 24 28 27 26 25 22 27 31 28 28 29 31 31 29 26 32 24 23 20 17 16
41 44 39 39 36 32 25 23 21 23 22 17 13 12 6 9 9 6 5 4 9 16 20 20 22 23 23 21 17 18 21 23 22 25 24 24 24 24 22 18 16 14 13
44 40 40 40 37 31 24 21 29 20 25 20 14 11 7 7 10 6 2 6 7 6 9 13 17 16 17 19 16 14 16 18 19 17 17 19 21 18 16 13 10 10 10
35 26 44 43 38 28 31 27 19 22 22 16 15 15 15 8 12 10 8 3 4 3 2 6 10 15 16 10 10 11 12 11 10 12 13 14 13 12 11 8 9 8 6
34 32 31 35 34 25 28 30 26 18 19 14 14 15 13 11 9 8 9 5 3 7 3 4 2 4 13 17 2 5 6 6 6 6 6 6 9 9 8 6 11 14 10
40 26 30 30 38 24 35 29 30 24 20 17 14 18 18 20 20 19 15 14 14 7 10 8 4 8 6 11 9 5 8 7 6 5 4 3 4 9 8 1 1 8 8
51 37 25 29 37 34 28 31 34 29 25 21 12 14 22 22 22 26 26 21 21 19 15 7 9 10 8 9 12 5 3 10 14 15 14 10 7 9 10 8 6 9 7
45 43 22 25 40 40 39 30 30 42 40 30 23 17 18 18 18 21 25 28 23 21 22 19 12 10 14 10 7 8 6 6 7 8 10 12 9 13 17 18 16 15 13
41 38 33 32 29 32 46 34 33 34 42 36 29 28 23 21 19 16 25 26 22 23 21 19 25 19 21 18 12 9 9 7 7 10 9 8 9 8 11 12 17 18 22
37 36 35 34 31 20 36 32 29 33 41 44 35 30 28 22 18 18 20 23 26 25 21 20 19 23 26 25 24 20 15 10 10 14 13 11 12 16 14 16 19 20 22
38 34 34 36 32 24 23 33 41 34 37 48 39 33 26 26 22 21 16 14 20 26 25 23 21 18 22 25 24 27 27 24 21 17 15 14 16 17 16 20 16 16 23
38 36 31 32 35 32 26 27 31 17 31 37 38 34 33 31 26 23 21 15 14 18 26 30 29 27 24 23 26 29 31 31 32 30 27 25 25 25 26 27 27 20 19
38 34 34 30 34 33 33 26 22 29 19 33 35 36 35 35 33 26 31 30 23 22 21 28 32 30 29 27 25 24 26 34 36 37 35 34 31 28 25 26 30 26 23
37 32 32 29 26 33 33 27 28 21 29 17 24 36 35 35 32 33 31 30 31 29 30 27 27 25 25 26 27 25 26 25 33 37 37 34 28 24 26 25 24 24 25
36 33 31 32 28 23 24 28 24 23 25 30 22 15 33 35 37 39 35 31 35 34 34 36 29 26 25 26 27 27 26 28 31 33 35 32 26 20 17 21 25 27 27
37 30 34 32 32 30 22 24 24 22 21 22 26 20 10 34 31 38 38 37 28 36 34 31 32 27 27 27 31 30 26 24 23 29 31 30 24 18 16 17 20 26 25
37 36 36 28 23 23 23 22 23 24 24 25 22 19 17 15 33 39 41 40 39 41 34 36 34 33 28 23 21 22 23 22 22 20 18 24 22 22 19 17 15 15 17
40 43 38 34 29 26 25 25 26 28 31 31 30 24 22 15 23 29 25 39 43 38 38 41 37 34 33 28 26 26 26 24 22 21 23 26 28 28 26 21 18 18 19
33 37 39 33 33 27 23 22 27 30 30 31 30 27 21 19 20 27 28 33 28 40 35 34 32 30 32 32 32 34 33 31 29 25 27 32 34 34 30 27 26 25 24
32 33 38 34 34 32 30 28 28 30 29 26 25 23 23 20 25 28 32 30 35 30 37 43 43 39 35 32 25 27 36 38 32 28 25 29 32 32 32 31 29 29 29
37 33 41 39 34 30 31 32 31 28 27 25 25 25 26 27 23 25 31 37 36 36 38 38 38 37 37 36 31 29 28 35 42 36 33 34 32 32 33 31 30 30 30
35 36 36 33 33 30 30 31 34 31 26 25 23 21 21 24 24 24 23 23 35 37 35 33 35 36 36 43 40 35 35 32 38 42 44 44 43 38 39 38 34 31 31
29 36 36 30 30 28 29 33 40 40 32 25 22 21 21 16 13 13 12 16 21 27 35 35 36 39 41 41 43 41 40 38 40 37 37 40 44 52 55 54 50 47 41
Wind_Direction_500mb
296 312 292 291 284 292 303 315 322 317 343 346 2 341 310 319 332 342 349 353 346 354 8 19 31 34 59 105 75 118 130 178 157 134 155 145 143 145 147 156 153 158 163
287 299 294 277 287 277 286 304 310 314 306 327 333 344 328 318 315 338 5 14 22 22 25 30 39 54 69 69 90 117 115 127 127 118 152 132 137 145 148 155 152 151 153
287 285 288 278 285 277 277 287 301 302 310 300 308 338 336 314 325 3 23 44 52 45 44 43 52 54 73 79 90 99 116 122 122 117 112 130 130 135 142 144 147 154 158
277 270 288 285 285 288 270 281 285 292 309 310 305 322 349 113 322 33 26 48 49 47 50 50 56 62 67 80 84 92 106 110 120 125 133 132 133 141 146 150 155 166 180
282 265 271 286 282 291 265 277 281 294 294 296 271 295 318 234 244 297 321 22 55 50 49 51 52 57 62 74 80 97 102 111 120 130 134 136 140 147 153 159 159 160 187
283 282 257 280 283 278 259 263 263 279 300 278 281 262 263 231 248 272 25 65 58 64 34 40 41 48 52 59 77 93 96 115 123 130 137 153 151 153 165 167 169 176 202
287 276 270 260 280 272 260 253 259 255 283 276 263 234 238 244 232 253 221 136 84 20 24 21 61 49 39 45 69 90 97 106 121 131 148 165 176 178 184 192 211 199 207
318 286 250 247 274 278 266 255 264 245 262 273 251 233 224 227 242 257 249 230 225 267 238 250 159 6 21 26 103 128 128 126 125 115 117 159 191 196 190 233 258 252 256
347 309 249 242 262 272 256 263 251 251 260 266 249 239 242 239 239 247 256 258 241 209 251 297 274 285 327 356 14 234 225 219 211 205 203 220 215 205 191 150 212 176 194
353 344 252 235 270 277 266 242 257 256 258 259 262 260 247 257 251 244 247 246 249 237 232 243 271 278 240 310 358 8 224 246 239 235 234 233 208 194 208 218 209 196 227
346 350 331 279 265 258 263 264 234 245 252 254 256 230 260 264 260 248 244 243 247 242 239 255 261 234 235 260 356 21 2 323 237 213 202 193 220 246 250 244 238 231 242
345 346 340 336 327 268 241 270 255 241 245 247 238 234 256 275 267 261 253 248 241 238 236 246 256 246 235 243 264 308 332 340 200 189 192 221 233 239 243 237 236 242 241
338 348 343 343 347 296 248 274 265 251 235 249 241 237 242 263 258 274 291 244 236 238 239 239 258 244 239 249 259 266 281 268 234 229 237 249 228 227 239 258 258 257 253
327 334 345 352 347 340 318 298 273 263 245 240 244 240 250 246 247 239 281 229 239 237 239 241 246 251 245 251 260 264 263 255 241 236 237 240 248 247 246 250 266 276 264
324 323 332 338 344 346 336 333 265 306 250 242 241 244 239 250 240 233 256 247 240 241 244 242 242 246 246 253 263 272 258 249 241 241 251 257 258 255 253 257 270 268 272
325 320 321 326 334 339 337 338 333 282 311 240 236 233 246 247 239 237 232 250 240 243 245 249 247 242 246 251 256 262 252 247 245 243 251 263 266 256 249 250 263 259 267
337 324 328 322 323 331 339 329 340 349 283 351 244 237 237 239 240 237 235 238 241 245 245 249 245 241 245 248 256 261 253 247 245 241 245 258 259 248 256 256 257 252 262
337 334 317 316 329 334 331 323 325 339 347 319 351 249 232 238 239 230 235 241 244 244 248 249 248 240 243 249 254 260 257 252 247 237 234 252 248 244 255 267 263 259 259
349 345 331 324 316 333 323 324 314 324 342 345 332 324 268 233 234 232 233 236 243 247 252 251 259 240 247 261 265 257 248 245 236 233 245 255 233 235 254 269 271 254 246
11 1 357 350 344 334 321 325 319 322 331 334 338 318 297 312 239 239 235 233 247 249 243 256 262 246 243 255 256 238 242 245 244 241 245 228 232 238 250 264 275 251 249
8 360 4 1 354 348 346 339 328 318 314 316 317 315 300 295 269 237 241 241 246 253 251 259 259 246 238 246 243 242 250 247 242 247 238 241 242 250 257 253 259 256 253
351 355 354 355 353 349 341 324 314 316 316 315 309 306 299 277 275 256 249 242 245 239 250 253 256 240 242 242 247 247 251 251 252 257 248 242 251 256 252 252 253 255 256
351 352 352 353 2 359 1 357 349 342 334 329 325 320 313 293 266 255 249 249 248 253 249 246 262 242 242 234 245 255 250 250 252 255 250 241 249 255 255 253 253 254 253
359 353 355 358 6 0 358 356 353 350 348 348 341 333 324 318 298 263 253 251 252 246 244 238 245 240 235 234 242 254 271 262 247 243 238 236 242 251 252 251 250 250 250
359 1 359 359 0 357 359 359 356 356 355 346 337 329 320 314 310 300 258 265 257 254 253 251 246 244 242 241 246 250 260 272 254 246 246 244 245 247 252 249 252 249 245
346 350 354 356 354 356 355 355 2 7 4 2 357 350 333 318 326 312 266 262 268 262 255 257 256 251 250 250 250 250 256 258 256 260 257 258 262 258 254 256 255 253 252
Wind_Speed_850mb
29 30 26 30 22 18 17 21 27 20 19 24 27 11 15 16 18 24 28 24 18 16 25 31 39 29 43 31 38 35 30 23 36 37 39 54 42 44 42 38 35 30 26
38 34 28 33 30 25 20 21 25 29 23 19 20 19 17 14 14 19 24 21 15 16 23 26 32 33 36 41 26 32 43 36 37 43 44 47 39 35 33 32 27 25 25
41 40 36 34 37 31 24 23 24 30 26 24 15 18 16 8 7 11 18 20 21 23 25 27 27 29 29 34 29 29 30 33 40 39 41 37 36 32 34 32 30 25 22
45 40 40 39 38 38 21 27 21 30 25 20 10 13 6 1 3 7 10 13 16 21 24 28 27 26 25 22 27 31 28 28 29 31 31 29 26 32 24 23 20 17 16
41 44 39 39 36 32 25 23 21 23 22 17 13 12 6 9 9 6 5 4 9 16 20 20 22 23 23 21 17 18 21 23 22 25 24 24 24 24 22 18 16 14 13
44 40 40 40 37 31 24 21 29 20 25 20 14 11 7 7 10 6 2 6 7 6 9 13 17 16 17 19 16 14 16 18 19 17 17 19 21 18 16 13 10 10 10
35 26 44 43 38 28 31 27 19 22 22 16 15 15 15 8 12 10 8 3 4 3 2 6 10 15 16 10 10 11 12 11 10 12 13 14 13 12 11 8 9 8 6
34 32 31 35 34 25 28 30 26 18 19 14 14 15 13 11 9 8 9 5 3 7 3 4 2 4 13 17 2 5 6 6 6 6 6 6 9 9 8 6 11 14 10
40 26 30 30 38 24 35 29 30 24 20 17 14 18 18 20 20 19 15 14 14 7 10 8 4 8 6 11 9 5 8 7 6 5 4 3 4 9 8 1 1 8 8
51 37 25 29 37 34 28 31 34 29 25 21 12 14 22 22 22 26 26 21 21 19 15 7 9 10 8 9 12 5 3 10 14 15 14 10 7 9 10 8 6 9 7
45 43 22 25 40 40 39 30 30 42 40 30 23 17 18 18 18 21 25 28 23 21 22 19 12 10 14 10 7 8 6 6 7 8 10 12 9 13 17 18 16 15 13
41 38 33 32 29 32 46 34 33 34 42 36 29 28 23 21 19 16 25 26 22 23 21 19 25 19 21 18 12 9 9 7 7 10 9 8 9 8 11 12 17 18 22
37 36 35 34 31 20 36 32 29 33 41 44 35 30 28 22 18 18 20 23 26 25 21 20 19 23 26 25 24 20 15 10 10 14 13 11 12 16 14 16 19 20 22
38 34 34 36 32 24 23 33 41 34 37 48 39 33 26 26 22 21 16 14 20 26 25 23 21 18 22 25 24 27 27 24 21 17 15 14 16 17 16 20 16 16 23
38 36 31 32 35 32 26 27 31 17 31 37 38 34 33 31 26 23 21 15 14 18 26 30 29 27 24 23 26 29 31 31 32 30 27 25 25 25 26 27 27 20 19
38 34 34 30 34 33 33 26 22 29 19 33 35 36 35 35 33 26 31 30 23 22 21 28 32 30 29 27 25 24 26 34 36 37 35 34 31 28 25 26 30 26 23
37 32 32 29 26 33 33 27 28 21 29 17 24 36 35 35 32 33 31 30 31 29 30 27 27 25 25 26 27 25 26 25 33 37 37 34 28 24 26 25 24 24 25
36 33 31 32 28 23 24 28 24 23 25 30 22 15 33 35 37 39 35 31 35 34 34 36 29 26 25 26 27 27 26 28 31 33 35 32 26 20 17 21 25 27 27
37 30 34 32 32 30 22 24 24 22 21 22 26 20 10 34 31 38 38 37 28 36 34 31 32 27 27 27 31 30 26 24 23 29 31 30 24 18 16 17 20 26 25
37 36 36 28 23 23 23 22 23 24 24 25 22 19 17 15 33 39 41 40 39 41 34 36 34 33 28 23 21 22 23 22 22 20 18 24 22 22 19 17 15 15 17
40 43 38 34 29 26 25 25 26 28 31 31 30 24 22 15 23 29 25 39 43 38 38 41 37 34 33 28 26 26 26 24 22 21 23 26 28 28 26 21 18 18 19
33 37 39 33 33 27 23 22 27 30 30 31 30 27 21 19 20 27 28 33 28 40 35 34 32 30 32 32 32 34 33 31 29 25 27 32 34 34 30 27 26 25 24
32 33 38 34 34 32 30 28 28 30 29 26 25 23 23 20 25 28 32 30 35 30 37 43 43 39 35 32 25 27 36 38 32 28 25 29 32 32 32 31 29 29 29
37 33 41 39 34 30 31 32 31 28 27 25 25 25 26 27 23 25 31 37 36 36 38 38 38 37 37 36 31 29 28 35 42 36 33 34 32 32 33 31 30 30 30
35 36 36 33 33 30 30 31 34 31 26 25 23 21 21 24 24 24 23 23 35 37 35 33 35 36 36 43 40 35 35 32 38 42 44 44 43 38 39 38 34 31 31
29 36 36 30 30 28 29 33 40 40 32 25 22 21 21 16 13 13 12 16 21 27 35 35 36 39 41 41 43 41 40 38 40 37 37 40 44 52 55 54 50 47 41
Wind_Direction_850mb
296 312 292 291 284 292 303 315 322 317 343 346 2 341 310 319 332 342 349 353 346 354 8 19 31 34 59 105 75 118 130 178 157 134 155 145 143 145 147 156 153 158 163
287 299 294 277 287 277 286 304 310 314 306 327 333 344 328 318 315 338 5 14 22 22 25 30 39 54 69 69 90 117 115 127 127 118 152 132 137 145 148 155 152 151 153
287 285 288 278 285 277 277 287 301 302 310 300 308 338 336 314 325 3 23 44 52 45 44 43 52 54 73 79 90 99 116 122 122 117 112 130 130 135 142 144 147 154 158
277 270 288 285 285 288 270 281 285 292 309 310 305 322 349 113 322 33 26 48 49 47 50 50 56 62 67 80 84 92 106 110 120 125 133 132 133 141 146 150 155 166 180
282 265 271 286 282 291 265 277 281 294 294 296 271 295 318 234 244 297 321 22 55 50 49 51 52 57 62 74 80 97 102 111 120 130 134 136 140 147 153 159 159 160 187
283 282 257 280 283 278 259 263 263 279 300 278 281 262 263 231 248 272 25 65 58 64 34 40 41 48 52 59 77 93 96 115 123 130 137 153 151 153 165 167 169 176 202
287 276 270 260 280 272 260 253 259 255 283 276 263 234 238 244 232 253 221 136 84 20 24 21 61 49 39 45 69 90 97 106 121 131 148 165 176 178 184 192 211 199 207
318 286 250 247 274 278 266 255 264 245 262 273 251 233 224 227 242 257 249 230 225 267 238 250 159 6 21 26 103 128 128 126 125 115 117 159 191 196 190 233 258 252 256
347 309 249 242 262 272 256 263 251 251 260 266 249 239 242 239 239 247 256 258 241 209 251 297 274 285 327 356 14 234 225 219 211 205 203 220 215 205 191 150 212 176 194
353 344 252 235 270 277 266 242 257 256 258 259 262 260 247 257 251 244 247 246 249 237 232 243 271 278 240 310 358 8 224 246 239 235 234 233 208 194 208 218 209 196 227
346 350 331 279 265 258 263 264 234 245 252 254 256 230 260 264 260 248 244 243 247 242 239 255 261 234 235 260 356 21 2 323 237 213 202 193 220 246 250 244 238 231 242
345 346 340 336 327 268 241 270 255 241 245 247 238 234 256 275 267 261 253 248 241 238 236 246 256 246 235 243 264 308 332 340 200 189 192 221 233 239 243 237 236 242 241
338 348 343 343 347 296 248 274 265 251 235 249 241 237 242 263 258 274 291 244 236 238 239 239 258 244 239 249 259 266 281 268 234 229 237 249 228 227 239 258 258 257 253
327 334 345 352 347 340 318 298 273 263 245 240 244 240 250 246 247 239 281 229 239 237 239 241 246 251 245 251 260 264 263 255 241 236 237 240 248 247 246 250 266 276 264
324 323 332 338 344 346 336 333 265 306 250 242 241 244 239 250 240 233 256 247 240 241 244 242 242 246 246 253 263 272 258 249 241 241 251 257 258 255 253 257 270 268 272
325 320 321 326 334 339 337 338 333 282 311 240 236 233 246 247 239 237 232 250 240 243 245 249 247 242 246 251 256 262 252 247 245 243 251 263 266 256 249 250 263 259 267
337 324 328 322 323 331 339 329 340 349 283 351 244 237 237 239 240 237 235 238 241 245 245 249 245 241 245 248 256 261 253 247 245 241 245 258 259 248 256 256 257 252 262
337 334 317 316 329 334 331 323 325 339 347 319 351 249 232 238 239 230 235 241 244 244 248 249 248 240 243 249 254 260 257 252 247 237 234 252 248 244 255 267 263 259 259
349 345 331 324 316 333 323 324 314 324 342 345 332 324 268 233 234 232 233 236 243 247 252 251 259 240 247 261 265 257 248 245 236 233 245 255 233 235 254 269 271 254 246
11 1 357 350 344 334 321 325 319 322 331 334 338 318 297 312 239 239 235 233 247 249 243 256 262 246 243 255 256 238 242 245 244 241 245 228 232 238 250 264 275 251 249
8 360 4 1 354 348 346 339 328 318 314 316 317 315 300 295 269 237 241 241 246 253 251 259 259 246 238 246 243 242 250 247 242 247 238 241 242 250 257 253 259 256 253
351 355 354 355 353 349 341 324 314 316 316 315 309 306 299 277 275 256 249 242 245 239 250 253 256 240 242 242 247 247 251 251 252 257 248 242 251 256 252 252 253 255 256
351 352 352 353 2 359 1 357 349 342 334 329 325 320 313 293 266 255 249 249 248 253 249 246 262 242 242 234 245 255 250 250 252 255 250 241 249 255 255 253 253 254 253
359 353 355 358 6 0 358 356 353 350 348 348 341 333 324 318 298 263 253 251 252 246 244 238 245 240 235 234 242 254 271 262 247 243 238 236 242 251 252 251 250 250 250
359 1 359 359 0 357 359 359 356 356 355 346 337 329 320 314 310 300 258 265 257 254 253 251 246 244 242 241 246 250 260 272 254 246 246 244 245 247 252 249 252 249 245
346 350 354 356 354 356 355 355 2 7 4 2 357 350 333 318 326 312 266 262 268 262 255 257 256 251 250 250 250 250 256 258 256 260 257 258 262 258 254 256 255 253 252